EW6383 Weather Reports


Display with metric or nautical units.
time (UTC)temp
F
wind
direction
speed
MPH
gust
MPH
rain 1hr
in
rain 24hr
in
rain mn
in
humidity
%
barometer
mb
20260510181522 88 360 8.0 15.0 0.00 0.04 0.00 71 1016.8
20260510180017 87 360 5.0 14.0 0.00 0.04 0.00 74 1016.9
20260510174515 86 360 10.0 16.0 0.00 0.04 0.00 74 1017.1
20260510173017 87 360 7.0 15.0 0.00 0.04 0.00 75 1017.2
20260510171511 88 360 5.0 13.0 0.00 0.04 0.00 73 1017.2
20260510170009 88 360 5.0 13.0 0.00 0.04 0.00 73 1017.2
20260510164514 88 360 7.0 14.0 0.00 0.04 0.00 71 1017.3
20260510163007 88 360 6.0 13.0 0.00 0.04 0.00 71 1017.2
20260510161505 89 360 5.0 13.0 0.00 0.04 0.00 70 1017.3
20260510160007 88 360 4.0 10.0 0.00 0.04 0.00 69 1017.3
20260510154601 87 360 3.0 10.0 0.00 0.04 0.00 69 1017.2
20260510153102 88 360 4.0 10.0 0.00 0.04 0.00 67 1017.2
20260510151556 88 360 4.0 11.0 0.00 0.04 0.00 67 1017.2
20260510144551 86 360 2.0 9.0 0.00 0.04 0.00 70 1017.0
20260510143053 85 360 4.0 11.0 0.00 0.04 0.00 72 1017.2
20260510141544 84 360 5.0 12.0 0.00 0.04 0.00 74 1017.1
20260510140040 83 360 2.0 8.0 0.00 0.04 0.00 77 1017.0
20260510134539 82 360 1.0 8.0 0.00 0.04 0.00 79 1017.0
20260510133037 81 360 5.0 11.0 0.00 0.04 0.00 79 1017.1
20260510131532 80 360 3.0 6.0 0.00 0.04 0.00 81 1016.8
20260510130026 78 360 1.0 5.0 0.00 0.04 0.00 83 1016.6
20260510124525 77 360 0.0 5.0 0.00 0.04 0.00 84 1016.6
20260510123018 77 360 2.0 9.0 0.00 0.04 0.00 85 1016.4
20260510121514 76 360 1.0 5.0 0.00 0.04 0.00 86 1016.4
20260510120013 75 360 2.0 6.0 0.00 0.04 0.00 88 1016.2
20260510114509 74 360 1.0 5.0 0.00 0.04 0.00 90 1016.0
20260510113011 73 360 0.0 5.0 0.00 0.04 0.00 91 1015.8
20260510111502 73 360 0.0 3.0 0.00 0.04 0.00 92 1015.5
20260510110101 72 360 1.0 4.0 0.00 0.04 0.00 92 1015.2
20260510104602 72 360 0.0 0.0 0.00 0.04 0.00 92 1015.0
20260510103102 72 360 0.0 0.0 0.00 0.04 0.00 91 1015.1
20260510101556 72 360 0.0 0.0 0.00 0.04 0.00 91 1014.8
20260510100057 72 360 0.0 0.0 0.00 0.04 0.00 91 1014.6
20260510094556 73 360 0.0 0.0 0.00 0.04 0.00 90 1014.6
20260510093105 73 360 0.0 1.0 0.00 0.04 0.00 90 1014.4
20260510091555 73 360 0.0 4.0 0.00 0.04 0.00 90 1014.2
20260510090052 73 360 0.0 3.0 0.00 0.04 0.00 89 1014.1
20260510084553 74 360 0.0 2.0 0.00 0.04 0.00 89 1014.0
20260510083052 73 360 0.0 0.0 0.00 0.04 0.00 89 1013.7
20260510081616 74 360 1.0 4.0 0.00 0.04 0.00 89 1013.7
20260510080047 74 360 0.0 2.0 0.00 0.04 0.00 89 1013.8
20260510074546 74 360 0.0 5.0 0.00 0.04 0.00 88 1013.7
20260510073054 74 360 0.0 3.0 0.00 0.04 0.00 88 1014.0
20260510071542 75 360 1.0 4.0 0.00 0.04 0.00 88 1014.0
20260510070041 75 360 1.0 4.0 0.00 0.04 0.00 89 1014.3
20260510064551 75 360 0.0 3.0 0.00 0.04 0.00 89 1014.6
20260510063042 75 360 0.0 4.0 0.00 0.04 0.00 91 1014.7
20260510061536 75 360 0.0 1.0 0.00 0.04 0.00 92 1014.7
20260510060042 75 360 1.0 3.0 0.00 0.04 0.00 93 1014.8
20260510054536 75 360 0.0 0.0 0.00 0.04 0.00 94 1015.1
20260510053041 75 360 0.0 3.0 0.00 0.04 0.00 94 1015.4
20260510051529 75 360 0.0 0.0 0.00 0.04 0.00 94 1015.4
20260510050028 75 360 0.0 0.0 0.00 0.04 0.00 94 1015.5
20260510044543 75 360 0.0 0.0 0.00 0.04 0.00 94 1015.5
20260510043030 75 360 0.0 0.0 0.00 0.04 0.00 94 1015.7
20260510041524 75 360 0.0 0.0 0.00 0.04 0.00 93 1015.9
20260510040034 75 360 0.0 0.0 0.00 0.04 0.00 93 1015.8
20260510034517 74 360 0.0 0.0 0.00 0.04 0.00 92 1015.6
20260510033015 75 360 0.0 0.0 0.00 0.04 0.00 92 1015.5
20260510030044 76 360 0.0 0.0 0.04 0.04 0.04 91 1015.3
20260510024534 76 360 0.0 0.0 0.03 0.03 0.03 90 1015.1
20260510023032 76 360 0.0 0.0 0.02 0.02 0.02 88 1015.1
20260510021533 77 360 0.0 1.0 0.00 0.00 0.00 87 1015.1
20260510020032 76 360 0.0 0.0 0.00 0.00 0.00 87 1015.0
20260510014535 76 360 0.0 0.0 0.00 0.00 0.00 87 1014.8
20260510013031 76 360 0.0 0.0 0.00 0.00 0.00 87 1014.6
20260510011531 77 360 0.0 0.0 0.00 0.00 0.00 86 1014.5
20260510010029 77 360 0.0 0.0 0.00 0.00 0.00 85 1014.4
20260510004528 77 360 0.0 2.0 0.00 0.00 0.00 85 1014.2
20260510003027 78 360 0.0 3.0 0.00 0.00 0.00 84 1014.1
20260510001527 79 360 0.0 2.0 0.00 0.00 0.00 82 1014.0
20260510000026 80 360 3.0 6.0 0.00 0.00 0.00 78 1014.1
20260509234536 80 360 4.0 9.0 0.00 0.00 0.00 77 1013.9
20260509233025 81 360 2.0 10.0 0.00 0.00 0.00 76 1013.8
20260509231524 81 360 4.0 9.0 0.00 0.00 0.00 75 1013.8
20260509230025 82 360 2.0 12.0 0.00 0.00 0.00 73 1013.5
20260509224523 82 360 4.0 12.0 0.00 0.00 0.00 72 1013.4
20260509223023 83 360 7.0 13.0 0.00 0.00 0.00 69 1013.4
20260509221522 84 360 5.0 11.0 0.00 0.00 0.00 67 1013.2
20260509220024 85 360 2.0 6.0 0.00 0.00 0.00 64 1013.0
20260509214522 85 360 3.0 11.0 0.00 0.00 0.00 63 1012.9
20260509213021 85 360 4.0 13.0 0.00 0.00 0.00 61 1012.7
20260509211520 87 360 5.0 15.0 0.00 0.00 0.00 57 1012.6
20260509210020 89 360 9.0 15.0 0.00 0.00 0.00 51 1012.4
20260509204519 90 360 6.0 14.0 0.00 0.00 0.00 50 1012.4
20260509203019 90 360 4.0 16.0 0.00 0.00 0.00 53 1012.4
20260509201516 91 360 3.0 13.0 0.00 0.00 0.00 52 1012.4
20260509200015 90 360 5.0 15.0 0.00 0.00 0.00 56 1012.5
20260509194515 90 360 4.0 11.0 0.00 0.00 0.00 55 1012.6
20260509193013 89 360 3.0 18.0 0.00 0.00 0.00 57 1012.8
20260509191512 89 360 4.0 11.0 0.00 0.00 0.00 54 1012.9
20260509190015 89 360 7.0 17.0 0.00 0.00 0.00 56 1013.1
20260509184508 90 360 5.0 21.0 0.00 0.00 0.00 56 1013.3
20260509183007 90 360 7.0 14.0 0.00 0.00 0.00 57 1013.5